Regional Weather Roundup
Issued by NWS

Home | Current Version | Previous Version | Graphics & Text | Print | Product List | Glossary On
Versions: 1 2 3 4 5 6 7 8 9 10 11 12 13 14 15 16 17 18 19 20 21 22 23 24 25 26 27 28 29 30 31 32 33 34 35 36 37 38 39 40 41 42 43 44 45 46 47 48 49 50
000
ASUS43 KOAX 060210
RWRNE

WEATHER ROUNDUP FOR NEBRASKA
NATIONAL WEATHER SERVICE OMAHA NE
900 PM CDT SUN JUL 05 2015

NOTES: SATELLITE DATA IS BEING USED TO AUGMENT CLOUD COVER ABOVE
       12000 FEET.
       "FAIR" INDICATES FEW OR NO CLOUDS BELOW 12,000 FEET WITH NO
       SIGNIFICANT WEATHER AND/OR OBSTRUCTIONS TO VISIBILITY.

  * THESE STATIONS DO NOT REPORT WEATHER SUCH AS RAIN...SNOW OR FOG.

NEZ001>004-019>022-054>056-060300-
NEBRASKA PANHANDLE

CITY           SKY/WX    TMP DP  RH WIND       PRES   REMARKS
SCOTTSBLUFF    LGT RAIN  66  32  28 NW17G28   29.93S
ALLIANCE       LGT RAIN  65  62  90 NW20      29.93F
CHADRON        RAIN      62  61  96 NE14G20   29.98F FOG
KIMBALL          N/A    N/A N/A N/A MISG        N/A
SIDNEY         CLOUDY    68  60  75 NW23G31   29.94S
$$

NEZ057>060-069>072-079>082-060300-
SOUTHWEST NEBRASKA

CITY           SKY/WX    TMP DP  RH WIND       PRES   REMARKS
NORTH PLATTE   CLOUDY    84  61  45 W23G39    29.77R
IMPERIAL       CLOUDY    77  60  55 N10       29.78R
LEXINGTON      CLOUDY    85  59  41 SW15G21   29.73S
MCCOOK         CLOUDY    77  63  61 NE17      29.76F
OGALLALA       CLOUDY    73  64  73 N9        29.82R
$$

NEZ005>010-023>029-035>040-094-060300-
NORTH CENTRAL NEBRASKA

CITY           SKY/WX    TMP DP  RH WIND       PRES   REMARKS
VALENTINE      TSTM      70  66  87 NE18G54   29.77R VSB 1
AINSWORTH      CLOUDY    81  71  71 E6        29.75R THUNDER
BROKEN BOW     CLOUDY    85  73  67 SE6       29.71S HX  91
O`NEILL        CLOUDY    84  76  77 E10       29.74R HX  93
ORD            CLOUDY    86  72  62 SE9       29.68F HX  92
THEDFORD       CLOUDY    83  72  69 E3        29.77R
$$

NEZ041-046>049-061>064-073>077-083>087-060300-
SOUTH CENTRAL NEBRASKA

CITY           SKY/WX    TMP DP  RH WIND       PRES   REMARKS
GRAND ISLAND   PTCLDY    87  68  52 S15       29.71F HX  90
AURORA         PTCLDY    85  69  59 SE15      29.72F
HASTINGS       PTCLDY    88  63  43 S10G20    29.73F
HEBRON         PTCLDY    85  66  52 SE8       29.77F
HOLDREGE       CLOUDY    85  60  42 SW10G16   29.74S
KEARNEY *      MOCLDY    88  63  42 S17G23    29.72F
YORK           LGT RAIN  84  72  65 SE13      29.74F
$$

NEZ011>018-030>034-042>045-060300-
NORTHEAST NEBRASKA

CITY           SKY/WX    TMP DP  RH WIND       PRES   REMARKS
NORFOLK        PTCLDY    83  76  79 SE13      29.73F HX  91
ALBION         MOCLDY    84  71  65 SE9       29.72S
BLAIR          PTCLDY    84  69  60 SE18      29.79F
COLUMBUS *     CLEAR     84  72  65 SE10      29.72F
FREMONT        MOCLDY    85  70  59 SE14G21   29.76F HX  90
TEKAMAH        MOCLDY    85  75  72 SE13      29.76F HX  93
WAYNE          PTCLDY    82  75  79 SE10      29.75F
$$

NEZ050>053-065>068-078-088>093-060300-
SOUTHEAST NEBRASKA

CITY           SKY/WX    TMP DP  RH WIND       PRES   REMARKS
LINCOLN        PTCLDY    86  71  60 SE15G25   29.76F HX  91
OMAHA EPPLEY   MOCLDY    85  75  72 SE18      29.78F HX  93
BEATRICE       PTCLDY    86  72  63 S14G20    29.78F HX  92
FALLS CITY     PTCLDY    84  75  74 SE12      29.83S HX  92
NEBRASKA CITY  PTCLDY    83  66  56 SE8       29.82S
PLATTSMOUTH    PTCLDY    83  68  60 SE9       29.82S
$$

NEZ044-045-051>053-067-060300-
OMAHA AREA

CITY           SKY/WX    TMP DP  RH WIND       PRES   REMARKS
OMAHA EPPLEY   MOCLDY    85  75  72 SE18      29.78F HX  93
BLAIR          PTCLDY    84  69  60 SE18      29.79F
FREMONT        MOCLDY    85  70  59 SE14G21   29.76F HX  90
MILLARD        LGT RAIN  80  73  79 SE14G22   29.78F
OFFUTT AFB     PTCLDY    83  73  71 SE12      29.80S
PLATTSMOUTH    PTCLDY    83  68  60 SE9       29.82S
WAHOO          FAIR      82  73  75 SE12      29.76F
$$



USA.gov is the U.S. government's official web portal to all federal, state and local government web resources and services.